Location: ?????????
(41.2393°N, 22.9479°E)
Time: 06:03:46
(UTC+00:00)

Cosmos 1862 - Pass Details

Date: 17 November 2025
Orbit: 473 x 485 km, 82.5° (Epoch: 09 December)

Event Time Altitude Azimuth Distance (km) Brightness Sun altitude
Rises 16:44:11 0° 354° (N) 2,539 6.7 -18.2°
Reaches altitude 10° 16:46:17 10° 356° (N) 1,658 5.7 -18.6°
Maximum altitude 16:49:54 74° 81° (E) 504 2.9 -19.2°
Drops below altitude 10° 16:53:31 10° 168° (SSE) 1,652 5.7 -19.9°
Sets 16:55:36 0° 170° (S) 2,529 6.7 -20.3°
